Hourly Data Report for August 04, 2021

LONDON CS
ONTARIO
Current Station Operator: ECCC - MSC

43°02'00.000" N
81°09'00.000" W
278.00 m
6144478
71622
WSN

Download Data

Hourly Data (August 2021)
Hourly Data Report for August 4, 2021
TIME
LST
Temp Definition
°C
Dew Point Definition
°C
Rel Hum Definition
%
Precip. Amount Definition
mm

Wind Dir Definition
10's deg

Wind Spd Definition
km/h
Visibility Definition
km
Stn Press Definition
kPa
Hmdx Definition


Wind Chill Definition


Weather Definition


00:00 14.0 13.2 95 0.0       98.64     LegendNANA
01:00 13.8 12.9 94 0.0       98.63     LegendNANA
02:00 13.1 12.2 95 0.0       98.64     LegendNANA
03:00 12.9 12.2 95 0.0       98.67     LegendNANA
04:00 12.6 11.5 93 0.0       98.69     LegendNANA
05:00 12.3 11.6 96 0.0       98.72     LegendNANA
06:00 12.3 11.4 94 0.0       98.74     LegendNANA
07:00 15.0 13.6 91 0.0       98.78     LegendNANA
08:00 20.1 16.0 78 0.0       98.82 25   LegendNANA
09:00 22.3 15.2 64 0.0       98.85 26   LegendNANA
10:00 23.6 15.3 60 0.0       98.85 28   LegendNANA
11:00 24.4 13.0 49 0.0       98.84 27   LegendNANA
12:00 25.2 14.6 52 0.0       98.83 29   LegendNANA
13:00 24.3 12.9 49 0.0       98.81 27   LegendNANA
14:00 25.5 12.7 45 0.0       98.77 28   LegendNANA
15:00 26.2 11.7 40 0.0       98.75 28   LegendNANA
16:00 26.1 13.8 47 0.0       98.72 29   LegendNANA
17:00 25.6 14.2 49 0.0       98.71 29   LegendNANA
18:00 25.5 11.5 42 0.0       98.68 28   LegendNANA
19:00 23.4 15.6 62 0.0       98.68 28   LegendNANA
20:00 20.8 15.5 72 0.0       98.71 25   LegendNANA
21:00 19.9 14.4 71 0.0       98.78     LegendNANA
22:00 17.5 14.6 83 0.0       98.79     LegendNANA
23:00 16.8 13.9 83 0.0       98.79     LegendNANA

Notes on Data Quality.

Legend

  • E = Estimated
  • M = Missing
  • NA = Not Available*
  • [empty] = Indicates an unobserved value
Date modified: